Home > Time Zones > World Clock > Weather > U.S.A. > Yuma > Past weeks

Flag for U.S.A. Weather past 2 weeks in Yuma, Arizona, U.S.A.

Now
75 °F

Partly sunny.


Feels Like: 77 °F
Forecast: 56 / 63 °F
Wind: 12 mph from Southwest

Location: Yuma Marine Corps Air Station

Current Time: Feb 28, 2015 at 5:14:14 PM

Latest Report: Feb 28, 2015 at 4:57 PM


Visibility: 10 mi

Pressure: 29.78 "Hg

Humidity: 34%

Dew point: 45 °F

Location of YumaLocation

Historic Weather in Yuma — Graph

°F

Yuma temperature yesterday

Maximum temperature yesterday: 77 °F (at 4:57 PM)
Minimum temperature yesterday: 53 °F (at 6:57 AM)
Average temperature yesterday: 66 °F

Past Weeks' High & Low Weather Summary

 TemperatureHumidityPressure
High87 °F (Feb 14, 2:57 PM)87% (Feb 16, 6:57 AM)30.16 "Hg (Feb 16, 6:57 AM)
Low46 °F (Feb 25, 6:57 AM)10% (Feb 18, 1:57 PM)29.61 "Hg (Feb 27, 5:57 PM)
Average67 °F42%29.93 "Hg
* Reported Feb 13 3:57 PM — Feb 28 3:57 PM, Yuma, Weather by CustomWeather, © 2015

Note: Actual official high and low records may vary slightly from our data, if they occured in-between our weather recording intervals... More about our weather records

Advertising

Yuma weather history for previous 24 hours

 ConditionsComfort  
Time TempWeatherWind HumidityBarometerVisibility
3:57 PM
Sat, Feb 28
75 °FBroken clouds.9 mph36%29.78 "Hg10 mi
2:57 PM74 °FBroken clouds.9 mph35%29.78 "Hg10 mi
1:57 PM73 °FBroken clouds.10 mph37%29.79 "Hg10 mi
12:57 PM74 °FBroken clouds.10 mph35%29.81 "Hg10 mi
11:57 AM71 °FScattered clouds.9 mph36%29.84 "Hg10 mi
10:57 AM68 °FPassing clouds.10 mph40%29.84 "Hg10 mi
9:57 AM66 °FPassing clouds.10 mph43%29.82 "Hg10 mi
8:57 AM63 °FScattered clouds.6 mph54%29.80 "Hg10 mi
7:57 AM54 °FScattered clouds.5 mph83%29.78 "Hg10 mi
6:57 AM53 °FPassing clouds.5 mph83%29.75 "Hg10 mi
5:57 AM56 °FPassing clouds.3 mph84%29.73 "Hg10 mi
4:57 AM57 °FClear.5 mph81%29.72 "Hg10 mi
3:57 AM60 °FClear.5 mph67%29.72 "Hg10 mi
2:57 AM57 °FClear.3 mph60%29.71 "Hg10 mi
1:57 AM61 °FClear.7 mph52%29.70 "Hg10 mi
12:57 AM61 °FClear.7 mph52%29.70 "Hg10 mi
11:57 PM
Fri, Feb 27
64 °FClear.6 mph47%29.70 "Hg10 mi
10:57 PM64 °FPartly cloudy.5 mph47%29.69 "Hg6 mi
9:57 PM67 °FPartly cloudy.8 mph44%29.69 "Hg10 mi
8:57 PM68 °FPartly cloudy.10 mph42%29.68 "Hg10 mi
7:57 PM70 °FPassing clouds.12 mph39%29.65 "Hg6 mi
6:57 PM72 °FPassing clouds.9 mph37%29.62 "Hg10 mi
5:57 PM76 °FPartly sunny.10 mph25%29.61 "Hg10 mi
Weather by CustomWeather, © 2015

See weather overviewHow to use our weather pages